Location: Oshawa
(43.9000°N, 78.8670°W)
Time: 15:18:13
(UTC-05:00)

Explorer 11/Cluster Stage 4 - Visible Passes

Search period start: 04 December 2016 00:00
Search period end: 14 December 2016 00:00
Orbit: 467 x 1264 km, 28.8° (Epoch: 04 December)

Date Brightness Start Highest point End Pass type
(mag) Time Alt. Az. Time Alt. Az. Time Alt. Az.
04 Dec 8.8 17:58:56 10° SW 18:03:25 19° S 18:07:23 10° SE visible
04 Dec 8.8 19:47:47 10° SW 19:50:36 15° SSW 19:50:36 15° SSW visible
05 Dec 8.9 17:48:26 10° SW 17:53:22 20° S 17:57:41 10° SE visible
05 Dec 8.8 19:37:33 10° SW 19:41:10 16° SSW 19:41:29 16° S visible
06 Dec 9.0 17:38:00 10° SW 17:43:16 21° S 17:47:55 10° SE visible
06 Dec 8.8 19:27:21 10° SW 19:31:06 16° SSW 19:32:25 15° S visible
07 Dec 9.0 17:27:36 10° SW 17:33:10 23° S 17:38:06 10° SE visible
07 Dec 8.9 19:17:10 10° SW 19:21:02 16° SSW 19:23:24 13° S visible
08 Dec 9.1 17:17:14 10° SW 17:23:03 23° S 17:28:12 10° SE visible
08 Dec 9.1 19:07:02 10° SW 19:10:55 16° SSW 19:14:25 10° SSE visible
09 Dec 9.2 17:06:55 10° SW 17:12:54 24° S 17:18:16 10° SE visible
09 Dec 9.2 18:56:57 10° SW 19:00:47 15° SSW 19:04:16 10° S visible
10 Dec 9.3 18:46:55 10° SW 18:50:37 14° SSW 18:54:02 10° S visible
11 Dec 9.5 18:36:59 10° SW 18:40:26 14° SSW 18:43:40 10° S visible
12 Dec 9.7 18:27:10 10° SW 18:30:13 13° SSW 18:33:08 10° S visible
13 Dec 9.8 18:17:34 10° SW 18:20:00 12° SSW 18:22:22 10° S visible
